Flag for Germany Weather past 2 weeks in Schloss Holte-Stukenbrock, North Rhine-Westphalia, Germany

Now
52 °F

Scattered clouds.


Feels Like: 51 °F
Forecast: 45 / 49 °F
Wind: 6 mph from Southwest

Location: Bad Lippspringe

Current Time: Mar 28, 2015 at 1:40:19 PM

Latest Report: Mar 28, 2015 at 1:00 PM


Visibility: 12 mi

Pressure: 30.03 "Hg

Humidity: 52%

Dew point: 35 °F

Location of Schloss Holte-StukenbrockLocation

Historic Weather in Schloss Holte-Stukenbrock — Graph

°F

Schloss Holte-Stukenbrock temperature yesterday

Maximum temperature yesterday: 45 °F (at 3:00 PM)
Minimum temperature yesterday: 40 °F (at 10:00 AM)
Average temperature yesterday: 42 °F

Past Weeks' High & Low Weather Summary

 TemperatureHumidityPressure
High63 °F (Mar 25, 3:00 PM)100% (Mar 19, 8:00 AM)30.40 "Hg (Mar 19, 8:00 AM)
Low27 °F (Mar 23, 5:00 AM)42% (Mar 17, 3:00 PM)29.63 "Hg (Mar 25, 3:00 PM)
Average42 °F80%30.13 "Hg
* Reported Mar 13 12:00 Noon — Mar 28 12:00 Noon, Schloss Holte-Stukenbrock, Weather by CustomWeather, © 2015

Note: Actual official high and low records may vary slightly from our data, if they occured in-between our weather recording intervals... More about our weather records

Advertising

Schloss Holte-Stukenbrock weather history for previous 24 hours

 ConditionsComfort  
Time TempWeatherWind HumidityBarometerVisibility
12:00 PM
Sat, Mar 28
50 °FPassing clouds.6 mph57%30.08 "Hg11 mi
11:00 AM48 °FPassing clouds.6 mph57%30.11 "Hg9 mi
10:00 AM46 °FPassing clouds.2 mph63%30.14 "Hg6 mi
9:00 AM43 °FPassing clouds.2 mph72%30.16 "Hg7 mi
8:00 AM39 °FFog.2 mph84%30.18 "Hg4 mi
7:00 AM35 °FFog.1 mph92%30.20 "Hg3 mi
6:00 AM35 °FFog.2 mph92%30.21 "Hg3 mi
5:00 AM36 °FPassing clouds.1 mph93%30.22 "Hg6 mi
4:00 AM38 °FOvercast.1 mph91%30.21 "Hg8 mi
3:00 AM39 °FOvercast.2 mph92%30.20 "Hg6 mi
2:00 AM40 °FOvercast.2 mph87%30.21 "Hg11 mi
1:00 AM41 °FOvercast.2 mph87%30.21 "Hg17 mi
12:00 AM41 °FOvercast.3 mph86%30.21 "Hg25 mi
11:00 PM
Fri, Mar 27
41 °FOvercast.5 mph86%30.19 "Hg37 mi
10:00 PM42 °FOvercast.5 mph84%30.18 "Hg34 mi
9:00 PM42 °FOvercast.6 mph79%30.17 "Hg43 mi
8:00 PM43 °FOvercast.5 mph78%30.14 "Hg43 mi
7:00 PM42 °FOvercast.3 mph83%30.12 "Hg16 mi
6:00 PM42 °FDrizzle. Overcast.5 mph85%30.09 "Hg14 mi
5:00 PM44 °FOvercast.5 mph83%30.06 "Hg17 mi
4:00 PM43 °FOvercast.9 mph84%30.03 "Hg18 mi
3:00 PM45 °FOvercast.8 mph85%30.01 "Hg19 mi
2:00 PM43 °FOvercast.8 mph88%29.98 "Hg16 mi
1:00 PM42 °FOvercast.8 mph86%29.98 "Hg11 mi
Weather by CustomWeather, © 2015

See weather overviewHow to use our weather pages